New York, NY

1:42 PM EDT on April 25, 2017 (GMT -0400)
La Guardia

Weather History for KLGA - May, 2013

Change the Weather History Date:

Monday, May 20, 2013

  Actual Average Record
Temperature  
Mean Temperature 68 °F 64 °F  
Max Temperature 79 °F 72 °F 97 °F (1996)
Min Temperature 57 °F 55 °F 44 °F (2002)
Degree Days  
Heating Degree Days 0 3  
Month to date heating degree days 96 107  
Since 1 July heating degree days 4405 4621  
Cooling Degree Days 3 2  
Month to date cooling degree days 19 25  
Year to date cooling degree days 19 33  
Growing Degree Days 18 (Base 50)    
Moisture  
Dew Point 60 °F    
Average Humidity 78    
Maximum Humidity 100    
Minimum Humidity 56    
Precipitation  
Precipitation T in 0.12 in 1.79 in (1972)
Month to date precipitation 3.76 2.29  
Year to date precipitation 13.18 16.19  
Snow  
Snow 0.00 in 0.00 in - ()
Month to date snowfall T 0.0  
Since 1 July snowfall 22.2 26.9  
Snow Depth 0.00 in    
Sea Level Pressure  
Sea Level Pressure 30.06 in    
Wind  
Wind Speed 6 mph (South)    
Max Wind Speed 15 mph    
Max Gust Speed 20 mph    
Visibility 5 miles    
Events Fog , Rain    
T = Trace of Precipitation, MM = Missing Value Source: NWS Daily Summary

Daily Weather History Graph

Daily Weather History Graph

Search for Another Location

Airport or City:

Trip Planner

Search our weather history database for the weather conditions in past years. The results will help you decide how hot, cold, wet, or windy it might be!

Date:

Astronomy

May. 20, 2013 Rise Set
Actual Time 5:33 AM EDT 8:10 PM EDT
Civil Twilight 5:02 AM EDT 8:42 PM EDT
Nautical Twilight 4:22 AM EDT 9:22 PM EDT
Astronomical Twilight 3:38 AM EDT 10:07 PM EDT
Moon 3:14 PM EDT (5/20) 2:29 AM EDT (5/20)
Length of Visible Light 15h 40m
Length of Day
14h 37m
Waxing Gibbous, 75% of the Moon is Illuminated
May 20
Waxing Gibbous
May 25
Full
May 31
Last Quarter
Jun 8
New
Jun 16
First Quarter

Hourly Weather History & Observations

Time (EDT) Temp. Dew Point Humidity Pressure Visibility Wind Dir Wind Speed Gust Speed Precip Events Conditions
12:40 AM 57.2 °F 55.4 °F 94% 30.16 in 0.1 mi NE 4.6 mph - 0.00 in Fog Light Drizzle
12:51 AM 57.0 °F 55.9 °F 96% 30.16 in 0.1 mi Calm Calm - 0.00 in Fog Light Drizzle
1:51 AM 57.9 °F 55.9 °F 93% 30.13 in 0.1 mi Calm Calm - 0.00 in Fog Light Drizzle
2:51 AM 57.9 °F 57.0 °F 97% 30.10 in 0.1 mi Calm Calm - 0.00 in Fog Fog
3:51 AM 57.9 °F 57.0 °F 97% 30.10 in 0.1 mi Calm Calm - N/A Fog Fog
4:51 AM 57.9 °F 57.0 °F 97% 30.09 in 0.1 mi East 3.5 mph - N/A Fog Fog
5:48 AM 57.2 °F 57.2 °F 100% 30.08 in 0.2 mi ENE 3.5 mph - N/A Fog Fog
5:51 AM 57.9 °F 57.0 °F 97% 30.09 in 0.2 mi NE 3.5 mph - N/A Fog Fog
6:02 AM 57.2 °F 55.4 °F 94% 30.09 in 0.2 mi NE 4.6 mph - N/A Fog Fog
6:51 AM 57.9 °F 57.0 °F 97% 30.09 in 0.2 mi NE 4.6 mph - N/A Fog Fog
7:51 AM 59.0 °F 57.9 °F 96% 30.10 in 0.2 mi Calm Calm - 0.00 in Fog Light Drizzle
8:02 AM 59.0 °F 57.2 °F 94% 30.11 in 0.2 mi Calm Calm - 0.00 in Fog Light Drizzle
8:28 AM 60.8 °F 59.0 °F 94% 30.11 in 0.5 mi Calm Calm - 0.00 in   Light Drizzle
8:46 AM 60.8 °F 59.0 °F 94% 30.11 in 1.0 mi Calm Calm - 0.00 in   Light Drizzle
8:51 AM 62.1 °F 59.0 °F 90% 30.11 in 1.0 mi Calm Calm - 0.00 in   Overcast
9:05 AM 62.6 °F 60.8 °F 94% 30.11 in 2.0 mi Calm Calm - N/A   Overcast
9:22 AM 64.4 °F 60.8 °F 88% 30.10 in 2.5 mi WSW 3.5 mph - N/A   Overcast
9:51 AM 66.0 °F 61.0 °F 84% 30.10 in 6.0 mi SW 9.2 mph - N/A   Haze
10:28 AM 68.0 °F 60.8 °F 78% 30.10 in 6.0 mi Calm Calm - N/A   Haze
10:51 AM 70.0 °F 60.1 °F 71% 30.09 in 6.0 mi West 10.4 mph - N/A   Haze
11:51 AM 73.0 °F 62.1 °F 68% 30.06 in 9.0 mi SW 4.6 mph - N/A   Mostly Cloudy
12:51 PM 75.0 °F 62.1 °F 64% 30.04 in 10.0 mi SW 8.1 mph - N/A   Mostly Cloudy
1:28 PM 75.2 °F 62.6 °F 65% 30.02 in 10.0 mi WSW 10.4 mph - N/A   Mostly Cloudy
1:51 PM 75.2 °F 60.8 °F 61% 30.02 in 10.0 mi SW 12.7 mph - N/A   Overcast
2:51 PM 77.0 °F 61.0 °F 58% 30.01 in 10.0 mi SSW 9.2 mph - N/A   Mostly Cloudy
3:51 PM 78.1 °F 62.1 °F 58% 30.01 in 10.0 mi SW 9.2 mph - N/A   Overcast
4:51 PM 77.0 °F 62.6 °F 61% 29.97 in 10.0 mi South 11.5 mph - N/A   Overcast
5:51 PM 78.1 °F 63.0 °F 60% 29.97 in 10.0 mi SSE 10.4 mph - N/A   Overcast
6:51 PM 75.0 °F 63.0 °F 66% 29.97 in 10.0 mi South 9.2 mph - N/A   Scattered Clouds
7:51 PM 73.9 °F 63.0 °F 68% 29.97 in 10.0 mi Variable 5.8 mph - N/A   Scattered Clouds
8:51 PM 72.0 °F 61.0 °F 68% 29.97 in 10.0 mi South 8.1 mph - N/A   Partly Cloudy
9:51 PM 69.1 °F 61.0 °F 75% 29.99 in 10.0 mi ESE 8.1 mph - N/A   Scattered Clouds
10:51 PM 71.1 °F 62.1 °F 73% 29.98 in 10.0 mi South 6.9 mph - N/A   Partly Cloudy
11:51 PM 70.0 °F 64.0 °F 81% 29.96 in 9.0 mi South 6.9 mph - N/A   Partly Cloudy